FW7772 Weather Reports


Display with metric or nautical units.
time (UTC)temp
F
wind
direction
speed
MPH
gust
MPH
rain 1hr
in
rain 24hr
in
rain mn
in
humidity
%
barometer
mb
20260509191708 56 162 2.0 4.0 0.00 0.00 0.00 35 1018.2
20260509190231 56 168 1.0 6.0 0.00 0.00 0.00 36 1018.3
20260509185232 56 197 3.0 8.0 0.00 0.00 0.00 33 1018.3
20260509184231 57 188 2.0 6.0 0.00 0.00 0.00 32 1018.3
20260509183708 57 181 2.0 7.0 0.00 0.00 0.00 31 1018.3
20260509182229 57 153 3.0 10.0 0.00 0.00 0.00 31 1018.3
20260509181228 57 187 3.0 11.0 0.00 0.00 0.00 32 1018.3
20260509180225 58 162 4.0 12.0 0.00 0.00 0.00 31 1018.3
20260509175225 58 152 4.0 9.0 0.00 0.00 0.00 31 1018.3
20260509174226 58 157 4.0 8.0 0.00 0.00 0.00 31 1018.4
20260509173225 58 191 4.0 11.0 0.00 0.00 0.00 31 1018.3
20260509172225 58 197 3.0 9.0 0.00 0.00 0.00 32 1018.4
20260509171710 58 149 4.0 14.0 0.00 0.00 0.00 30 1018.4
20260509170225 58 190 6.0 15.0 0.00 0.00 0.00 30 1018.5
20260509165711 58 181 4.0 14.0 0.00 0.00 0.00 30 1018.5
20260509164658 58 217 3.0 10.0 0.00 0.00 0.00 30 1018.6
20260509163219 59 280 5.0 12.0 0.00 0.00 0.00 29 1018.8
20260509162655 59 177 7.0 17.0 0.00 0.00 0.00 28 1018.9
20260509161218 59 205 6.0 16.0 0.00 0.00 0.00 28 1018.9
20260509160218 60 168 5.0 13.0 0.00 0.00 0.00 28 1019.1
20260509155652 60 179 6.0 15.0 0.00 0.00 0.00 28 1019.1
20260509154218 60 173 7.0 16.0 0.00 0.00 0.00 27 1019.2
20260509153213 60 164 7.0 15.0 0.00 0.00 0.00 28 1019.3
20260509152658 61 135 7.0 19.0 0.00 0.00 0.00 27 1019.4
20260509151212 61 166 6.0 14.0 0.00 0.00 0.00 26 1019.6
20260509150212 61 196 7.0 17.0 0.00 0.00 0.00 28 1019.7
20260509150128 61 218 5.0 16.0 0.00 0.00 0.00 27 1019.7
20260509144213 61 210 6.0 14.0 0.00 0.00 0.00 27 1019.7
20260509143213 60 198 6.0 15.0 0.00 0.00 0.00 27 1020.0
20260509142214 61 131 5.0 11.0 0.00 0.00 0.00 27 1020.1
20260509141212 60 131 5.0 12.0 0.00 0.00 0.00 26 1020.1
20260509140206 60 179 6.0 13.0 0.00 0.00 0.00 26 1020.2
20260509135655 60 182 6.0 17.0 0.00 0.00 0.00 26 1020.3
20260509134208 60 225 8.0 19.0 0.00 0.00 0.00 27 1020.4
20260509133206 60 171 8.0 16.0 0.00 0.00 0.00 26 1020.6
20260509132206 60 157 5.0 15.0 0.00 0.00 0.00 26 1020.6
20260509131207 60 185 8.0 18.0 0.00 0.00 0.00 27 1020.8
20260509130206 59 157 9.0 19.0 0.00 0.00 0.00 26 1021.1
20260509125206 59 148 10.0 17.0 0.00 0.00 0.00 27 1021.0
20260509124206 60 128 10.0 20.0 0.00 0.00 0.00 27 1021.3
20260509123206 61 135 8.0 14.0 0.00 0.00 0.00 25 1021.4
20260509122206 60 112 10.0 21.0 0.00 0.00 0.00 25 1021.4
20260509121206 60 150 10.0 19.0 0.00 0.00 0.00 24 1021.5
20260509120651 61 155 9.0 21.0 0.00 0.00 0.00 25 1021.6
20260509115206 60 139 7.0 15.0 0.00 0.00 0.00 24 1021.9
20260509114206 60 156 9.0 17.0 0.00 0.00 0.00 24 1022.1
20260509113647 61 133 9.0 18.0 0.00 0.00 0.00 23 1022.3
20260509112206 60 114 10.0 22.0 0.00 0.00 0.00 24 1022.2
20260509111204 60 135 11.0 19.0 0.00 0.00 0.00 24 1022.4
20260509110205 60 174 8.0 18.0 0.00 0.00 0.00 22 1022.6
20260509105204 60 150 10.0 20.0 0.00 0.00 0.00 23 1022.7
20260509104204 60 84 10.0 18.0 0.00 0.00 0.00 24 1022.7
20260509103204 60 114 11.0 20.0 0.00 0.00 0.00 23 1022.9
20260509102645 60 122 11.0 23.0 0.00 0.00 0.00 23 1023.1
20260509101644 60 197 7.0 12.0 0.00 0.00 0.00 24 1023.2
20260509100644 59 179 7.0 16.0 0.00 0.00 0.00 25 1023.4
20260509100120 59 167 4.0 8.0 0.00 0.00 0.00 31 1023.6
20260509094204 57 104 6.0 12.0 0.00 0.00 0.00 26 1023.7
20260509093202 57 192 4.0 10.0 0.00 0.00 0.00 26 1023.8
20260509092636 56 190 5.0 11.0 0.00 0.00 0.00 28 1023.8
20260509091202 57 155 4.0 9.0 0.00 0.00 0.00 28 1024.0
20260509090641 57 125 4.0 10.0 0.00 0.00 0.00 30 1024.2
20260509085203 57 117 6.0 12.0 0.00 0.00 0.00 30 1024.2
20260509084208 55 0.0 0.0 0.00 0.00 0.00 31 1024.2
20260509082945 53 131 4.0 9.0 0.00 0.00 0.00 34 1024.6
20260509081501 52 137 4.0 9.0 0.00 0.00 0.00 33 1024.7
20260509080501 51 104 5.0 10.0 0.00 0.00 0.00 34 1024.6
20260509075501 51 97 4.0 9.0 0.00 0.00 0.00 35 1024.7
20260509074502 51 93 4.0 9.0 0.00 0.00 0.00 36 1024.8
20260509073501 51 117 2.0 7.0 0.00 0.00 0.00 35 1024.7
20260509072502 50 112 4.0 8.0 0.00 0.00 0.00 39 1024.8
20260509071944 50 119 4.0 7.0 0.00 0.00 0.00 42 1024.8
20260509070501 50 84 5.0 8.0 0.00 0.00 0.00 40 1024.9
20260509065501 49 141 3.0 8.0 0.00 0.00 0.00 43 1025.0
20260509064938 48 120 3.0 6.0 0.00 0.00 0.00 41 1024.9
20260509063501 47 178 3.0 6.0 0.00 0.00 0.00 39 1024.8
20260509062501 47 100 4.0 11.0 0.00 0.00 0.00 42 1024.8
20260509061943 47 148 6.0 10.0 0.00 0.00 0.00 38 1024.9
20260509060501 46 152 5.0 10.0 0.00 0.00 0.00 41 1024.9
20260509055941 46 135 3.0 7.0 0.00 0.00 0.00 49 1024.8
20260509054501 45 100 3.0 6.0 0.00 0.00 0.00 54 1024.8
20260509053501 44 99 4.0 6.0 0.00 0.00 0.00 56 1024.9
20260509052501 43 89 3.0 5.0 0.00 0.00 0.00 58 1024.9
20260509051501 43 117 3.0 5.0 0.00 0.00 0.00 60 1025.0
20260509050942 42 100 1.0 3.0 0.00 0.00 0.00 66 1025.0
20260509045457 41 58 1.0 3.0 0.00 0.00 0.00 69 1025.0
20260509044458 40 58 0.0 1.0 0.00 0.00 0.00 72 1025.1
20260509043458 38 58 1.0 2.0 0.00 0.00 0.00 69 1025.2
20260509042954 38 58 1.0 3.0 0.00 0.00 0.00 73 1025.1
20260509041932 38 49 1.0 2.0 0.00 0.00 0.00 74 1025.1
20260509040457 38 49 1.0 3.0 0.00 0.00 0.00 74 1025.1
20260509035458 38 352 0.0 1.0 0.00 0.00 0.00 74 1025.0
20260509034937 38 352 1.0 2.0 0.00 0.00 0.00 74 1025.1
20260509033451 38 13 1.0 3.0 0.00 0.00 0.00 74 1025.1
20260509032453 38 329 1.0 3.0 0.00 0.00 0.00 74 1025.2
20260509031451 38 50 1.0 3.0 0.00 0.00 0.00 73 1025.1
20260509030451 38 7 1.0 2.0 0.00 0.00 0.00 73 1025.2
20260509025621 38 7 1.0 2.0 0.00 0.00 0.00 73 1025.2
20260509023451 38 81 1.0 3.0 0.00 0.00 0.00 72 1025.2
20260509022451 38 273 1.0 2.0 0.00 0.00 0.00 72 1025.3
20260509021450 38 273 1.0 2.0 0.00 0.00 0.00 71 1025.4
20260509020447 38 272 1.0 4.0 0.00 0.00 0.00 72 1025.5
20260509015448 38 72 2.0 5.0 0.00 0.00 0.00 71 1025.5
20260509014447 38 99 2.0 4.0 0.00 0.00 0.00 71 1025.5
20260509013447 38 108 1.0 4.0 0.00 0.00 0.00 71 1025.5
20260509012447 38 85 1.0 4.0 0.00 0.00 0.00 71 1025.4
20260509011448 38 63 1.0 3.0 0.00 0.00 0.00 72 1025.3
20260509010445 37 76 1.0 3.0 0.00 0.00 0.00 72 1025.4
20260509005446 37 318 1.0 3.0 0.00 0.00 0.00 72 1025.5
20260509004443 37 108 1.0 3.0 0.00 0.00 0.00 72 1025.5
20260509003443 37 317 1.0 3.0 0.00 0.00 0.00 71 1025.4
20260509002443 37 317 1.0 3.0 0.00 0.00 0.00 70 1025.4
20260509001443 37 300 1.0 2.0 0.00 0.00 0.00 69 1025.4
20260509000442 37 300 1.0 3.0 0.00 0.00 0.00 68 1025.4
20260508235441 38 354 2.0 3.0 0.00 0.00 0.00 67 1025.4
20260508234441 38 354 1.0 3.0 0.00 0.00 0.00 67 1025.3
20260508233440 38 67 1.0 4.0 0.00 0.00 0.00 66 1025.3
20260508232441 39 74 2.0 4.0 0.00 0.00 0.00 65 1025.4
20260508231440 39 76 2.0 4.0 0.00 0.00 0.00 63 1025.3
20260508230934 40 25 2.0 3.0 0.00 0.00 0.00 62 1025.3
20260508225441 40 320 2.0 4.0 0.00 0.00 0.00 62 1025.4
20260508224440 41 56 1.0 2.0 0.00 0.00 0.00 59 1025.3
20260508223441 42 93 0.0 2.0 0.00 0.00 0.00 59 1025.2
20260508222432 42 93 0.0 2.0 0.00 0.00 0.00 57 1025.2
20260508221433 43 93 1.0 3.0 0.00 0.00 0.00 57 1024.9
20260508220433 44 30 0.0 2.0 0.00 0.00 0.00 54 1025.0
20260508220357 44 30 0.0 2.0 0.00 0.00 0.00 53 1024.9
20260508214431 45 23 1.0 3.0 0.00 0.00 0.00 51 1024.8
20260508213431 46 65 1.0 3.0 0.00 0.00 0.00 51 1024.8
20260508212912 47 65 3.0 5.0 0.00 0.00 0.00 49 1024.6
20260508211910 47 64 4.0 8.0 0.00 0.00 0.00 49 1024.6
20260508210429 49 64 2.0 4.0 0.00 0.00 0.00 49 1024.3
20260508205428 50 189 2.0 4.0 0.00 0.00 0.00 45 1024.2
20260508204431 51 241 2.0 7.0 0.00 0.00 0.00 41 1024.1
20260508203429 51 211 2.0 4.0 0.00 0.00 0.00 40 1024.0
20260508202429 52 224 2.0 5.0 0.00 0.00 0.00 39 1024.0
20260508201431 52 173 2.0 4.0 0.00 0.00 0.00 38 1023.9
20260508200429 53 145 2.0 8.0 0.00 0.00 0.00 37 1023.7
20260508195429 54 158 2.0 6.0 0.00 0.00 0.00 35 1023.7
20260508194913 54 192 1.0 4.0 0.00 0.00 0.00 34 1023.6
20260508193429 55 195 2.0 4.0 0.00 0.00 0.00 34 1023.5
20260508192910 56 193 2.0 4.0 0.00 0.00 0.00 33 1023.5